Cloud_Cover
0 0 2 6 5 5 5 14 52 99 100 100 14 9 31 26 21 13 2 3 5 5 5 5 5 5 11 13 7 5 5 7 5 11 17 95 89 30 9 5 5 5 0
0 4 5 5 26 68 5 8 100 100 97 100 6 5 0 0 1 6 4 0 0 0 0 5 5 5 0 2 0 3 5 5 27 31 5 7 5 5 5 5 5 5 0
5 5 6 76 100 50 5 5 5 1 0 0 0 0 0 0 0 0 0 0 0 0 0 0 0 0 0 0 4 5 5 5 5 7 41 14 5 5 5 4 4 4 0
5 89 97 41 10 1 0 0 0 0 0 0 0 0 0 0 0 5 3 0 0 0 0 0 0 0 0 0 0 0 5 7 6 12 49 23 69 15 5 4 3 0 2
5 67 43 5 4 0 0 0 0 0 0 0 0 0 0 0 0 0 2 0 0 0 0 0 0 0 0 0 2 3 5 5 13 17 8 64 100 5 5 5 10 5 5
5 5 5 5 5 0 0 0 0 1 0 5 0 0 0 0 0 0 0 0 0 0 0 0 2 0 2 1 4 0 0 0 0 23 19 25 57 6 7 38 33 100 48
5 5 5 5 2 0 0 0 1 5 4 5 5 5 4 0 0 0 0 0 0 0 0 0 0 0 0 0 0 0 0 2 1 4 5 5 15 100 93 99 85 69 94
5 5 5 2 3 4 5 5 5 5 5 5 5 5 5 0 0 0 4 0 0 0 0 0 0 0 0 1 3 3 5 5 5 5 5 5 40 100 100 42 28 100 100
5 5 5 5 5 5 5 5 5 5 3 5 5 5 5 0 0 0 0 0 0 0 1 4 4 5 5 5 5 5 5 5 5 5 5 5 5 97 97 9 6 51 100
5 5 5 5 5 5 5 5 5 5 5 6 5 5 0 0 0 0 0 0 0 5 5 5 5 5 5 5 5 2 0 4 0 5 5 0 5 95 9 21 98 100 100
5 9 44 5 5 5 5 0 5 5 5 5 1 0 0 0 0 0 4 5 5 5 5 5 5 4 0 0 0 0 1 2 5 5 0 1 3 99 100 100 100 100 100
38 12 15 5 5 5 5 5 8 24 25 5 5 0 2 0 0 2 4 3 5 5 5 5 5 5 0 0 0 0 5 5 2 0 3 5 18 100 100 100 100 100 100
18 10 5 5 5 5 5 12 70 16 5 5 0 1 0 0 0 0 0 0 5 4 0 4 1 0 0 0 0 0 0 0 2 4 28 95 100 100 100 100 100 100 99
5 5 5 12 5 5 8 8 5 5 5 5 0 5 0 0 0 0 4 5 0 4 0 0 0 0 0 0 0 0 0 0 11 33 51 100 100 100 100 100 100 100 100
5 19 14 5 5 5 13 5 5 5 5 5 5 0 0 0 1 5 5 4 5 5 2 0 0 0 0 0 0 0 0 0 8 93 100 100 100 100 100 100 100 100 100
39 19 7 5 5 9 5 5 5 4 4 5 0 2 0 0 5 5 5 5 5 5 5 0 0 0 0 0 0 0 5 30 62 100 100 100 100 100 100 100 100 100 100
46 21 36 7 5 5 5 5 0 2 1 4 5 5 5 5 5 5 5 62 5 5 5 5 0 0 0 0 0 5 6 14 92 100 100 100 100 100 100 100 100 100 100
62 8 15 11 5 5 6 5 5 2 5 5 5 5 5 36 15 5 5 4 5 5 5 5 5 5 5 4 11 43 82 100 100 100 100 100 100 100 100 100 100 100 100
94 37 13 23 13 5 5 5 5 4 5 0 5 17 5 5 46 89 5 2 5 4 2 4 5 5 5 5 5 5 13 43 99 100 100 100 100 100 100 100 100 100 100
11 8 5 6 27 5 4 3 1 1 5 5 9 8 5 5 8 96 6 84 61 5 4 0 5 5 5 5 5 54 100 100 100 100 100 100 100 100 100 100 100 100 100
5 42 25 15 5 5 5 0 5 5 5 5 5 5 33 53 89 48 90 88 85 100 92 5 5 5 5 5 19 78 99 100 100 100 100 100 100 100 100 100 100 100 100
5 18 20 5 5 5 5 0 4 5 5 3 5 5 81 16 96 32 80 91 100 94 93 28 5 61 5 5 56 99 99 100 100 100 100 100 100 100 100 100 100 100 100
5 5 5 5 5 5 5 0 0 3 0 5 76 100 95 96 91 18 99 81 90 85 100 88 5 50 10 6 85 100 100 100 100 100 100 100 100 100 100 100 100 100 100
21 5 5 5 5 2 0 0 5 5 5 10 88 100 100 52 5 69 61 5 72 97 100 74 13 86 22 11 99 100 100 100 100 100 100 100 100 100 100 100 100 100 100
6 14 5 5 5 31 5 5 5 5 5 4 5 5 6 18 20 76 5 49 77 97 72 76 98 89 5 39 100 100 100 100 100 100 100 100 100 100 100 100 100 100 100
0 5 5 5 76 91 28 17 5 5 5 2 2 5 4 9 28 45 54 5 25 31 80 88 100 41 16 30 99 100 100 100 100 100 100 100 100 100 100 100 100 100 100